This is the latest recevied weather packets stored in our database for station/object W4TTU-1. If no packets are shown the sender has not sent any weather packets the latest 10 day(s).
| Time | Temp. | Humidity | Pressure | Rain* | Wind** | Luminosity | Snow |
|---|---|---|---|---|---|---|---|
| 1777462981 | -0.56° C | 38% | 850.7 hPa | 0 mm | - | - | - |
| 1777462081 | 0° C | 37% | 850.7 hPa | 0 mm | - | - | - |
| 1777461180 | 0° C | 38% | 850.5 hPa | 0 mm | - | - | - |
| 1777460280 | 0.56° C | 37% | 850.5 hPa | 0 mm | - | - | - |
| 1777458479 | 0.56° C | 38% | 850.4 hPa | 0 mm | - | - | - |
| 1777457578 | 0.56° C | 38% | 850.4 hPa | 0 mm | - | - | - |
| 1777456678 | 0.56° C | 38% | 850.5 hPa | 0 mm | - | - | - |
| 1777455777 | 1.11° C | 38% | 850.3 hPa | 0 mm | - | - | - |
| 1777453976 | 1.11° C | 38% | 850.3 hPa | 0 mm | - | - | - |
| 1777453076 | 1.67° C | 38% | 850.3 hPa | 0 mm | - | - | - |
| 1777452175 | 2.22° C | 38% | 850.3 hPa | 0 mm | - | - | - |
| 1777451274 | 2.22° C | 38% | 850.3 hPa | 0 mm | - | - | - |
| 1777448573 | 3.89° C | 37% | 850.4 hPa | 0 mm | - | - | - |
| 1777447672 | 3.89° C | 38% | 850.2 hPa | 0 mm | - | - | - |
| 1777446772 | 4.44° C | 38% | 850.4 hPa | 0 mm | - | - | - |
| 1777445872 | 4.44° C | 38% | 850.4 hPa | 0 mm | - | - | - |
| 1777444971 | 5° C | 37% | 850.5 hPa | 0 mm | - | - | - |
| 1777444070 | 5.56° C | 37% | 850.5 hPa | 0 mm | - | - | - |
| 1777443170 | 5.56° C | 36% | 850.4 hPa | 0 mm | - | - | - |
| 1777442269 | 6.11° C | 37% | 850.3 hPa | 0 mm | - | - | - |
| 1777441369 | 6.67° C | 36% | 850.3 hPa | 0 mm | - | - | - |
| 1777440468 | 6.67° C | 36% | 850 hPa | 0 mm | - | - | - |
| 1777439568 | 7.22° C | 36% | 849.9 hPa | 0 mm | - | - | - |
| 1777438667 | 7.78° C | 35% | 849.8 hPa | 0 mm | - | - | - |
| 1777437767 | 8.33° C | 35% | 849.6 hPa | 0 mm | - | - | - |
* Rain since midnight (hover to see other rain measurements)
** Current wind speed in m/s (hover to see current wind gust speed)